TimeMDT,TemperatureF,Dew PointF,Humidity,Sea Level PressureIn,VisibilityMPH,Wind Direction,Wind SpeedMPH,Gust SpeedMPH,PrecipitationIn,Events,Conditions,WindDirDegrees,DateUTC
12:35 AM,39.2,24.8,56,30.04,10.0,Calm,Calm,-,N/A,,Clear,0,2012-10-08 06:35:00
1:15 AM,33.8,19.4,56,30.04,10.0,ENE,3.5,-,N/A,,Clear,70,2012-10-08 07:15:00
1:35 AM,35.6,21.2,56,30.04,10.0,East,5.8,-,N/A,,Clear,90,2012-10-08 07:35:00
1:55 AM,35.6,21.2,56,30.05,10.0,East,3.5,-,N/A,,Clear,90,2012-10-08 07:55:00
2:15 AM,33.8,21.2,60,30.04,10.0,East,3.5,-,N/A,,Clear,80,2012-10-08 08:15:00
2:35 AM,33.8,19.4,56,30.04,10.0,Calm,Calm,-,N/A,,Clear,0,2012-10-08 08:35:00
2:55 AM,33.8,21.2,60,30.05,10.0,Calm,Calm,-,N/A,,Clear,0,2012-10-08 08:55:00
3:15 AM,33.8,19.4,56,30.05,10.0,Calm,Calm,-,N/A,,Clear,0,2012-10-08 09:15:00
3:35 AM,32.0,19.4,60,30.04,10.0,Calm,Calm,-,N/A,,Clear,0,2012-10-08 09:35:00
3:55 AM,30.2,19.4,64,30.04,10.0,Calm,Calm,-,N/A,,Clear,0,2012-10-08 09:55:00
4:15 AM,30.2,19.4,64,30.04,10.0,Calm,Calm,-,N/A,,Clear,0,2012-10-08 10:15:00
4:35 AM,32.0,19.4,60,30.04,10.0,Calm,Calm,-,N/A,,Clear,0,2012-10-08 10:35:00
4:55 AM,32.0,19.4,60,30.04,10.0,Calm,Calm,-,N/A,,Clear,0,2012-10-08 10:55:00
5:15 AM,30.2,17.6,60,30.04,10.0,Calm,Calm,-,N/A,,Clear,0,2012-10-08 11:15:00
5:35 AM,30.2,17.6,60,30.04,10.0,Calm,Calm,-,N/A,,Clear,0,2012-10-08 11:35:00
5:55 AM,30.2,17.6,60,30.04,10.0,Calm,Calm,-,N/A,,Clear,0,2012-10-08 11:55:00
6:15 AM,30.2,17.6,60,30.04,10.0,Calm,Calm,-,N/A,,Clear,0,2012-10-08 12:15:00
6:55 AM,28.4,15.8,59,30.04,10.0,Calm,Calm,-,N/A,,Clear,0,2012-10-08 12:55:00
7:15 AM,28.4,15.8,59,30.04,10.0,East,4.6,-,N/A,,Clear,100,2012-10-08 13:15:00
7:35 AM,28.4,15.8,59,30.04,10.0,East,3.5,-,N/A,,Clear,80,2012-10-08 13:35:00
7:55 AM,28.4,15.8,59,30.04,9.0,ENE,4.6,-,N/A,,Clear,70,2012-10-08 13:55:00
8:15 AM,28.4,15.8,59,30.05,8.0,East,3.5,-,N/A,,Clear,100,2012-10-08 14:15:00
8:35 AM,28.4,15.8,59,30.06,8.0,ENE,4.6,-,N/A,,Clear,70,2012-10-08 14:35:00
8:55 AM,30.2,17.6,60,30.06,5.0,ENE,3.5,-,N/A,,Clear,70,2012-10-08 14:55:00
9:15 AM,33.8,17.6,52,30.06,10.0,Calm,Calm,-,N/A,,Clear,0,2012-10-08 15:15:00
9:35 AM,35.6,17.6,48,30.06,5.0,Calm,Calm,-,N/A,,Clear,0,2012-10-08 15:35:00
9:55 AM,39.2,19.4,45,30.06,10.0,Calm,Calm,-,N/A,,Clear,0,2012-10-08 15:55:00
10:15 AM,41.0,19.4,42,30.07,10.0,Calm,Calm,-,N/A,,Clear,0,2012-10-08 16:15:00
10:35 AM,44.6,21.2,39,30.07,10.0,Calm,Calm,-,N/A,,Clear,0,2012-10-08 16:35:00
10:55 AM,44.6,23.0,43,30.06,10.0,Calm,Calm,-,N/A,,Clear,0,2012-10-08 16:55:00
11:35 AM,50.0,23.0,35,30.05,10.0,Calm,Calm,-,N/A,,Clear,0,2012-10-08 17:35:00
11:55 AM,51.8,24.8,35,30.05,10.0,NNW,3.5,-,N/A,,Clear,340,2012-10-08 17:55:00
12:15 PM,53.6,24.8,33,30.04,10.0,Calm,Calm,-,N/A,,Clear,0,2012-10-08 18:15:00
12:35 PM,53.6,26.6,35,30.03,10.0,Calm,Calm,-,N/A,,Clear,0,2012-10-08 18:35:00
12:55 PM,55.4,26.6,33,30.03,10.0,Calm,Calm,-,N/A,,Clear,0,2012-10-08 18:55:00
1:15 PM,57.2,26.6,31,30.02,10.0,WSW,3.5,-,N/A,,Clear,250,2012-10-08 19:15:00
1:35 PM,59.0,26.6,29,30.02,10.0,Calm,Calm,-,N/A,,Clear,0,2012-10-08 19:35:00
1:55 PM,59.0,24.8,27,30.01,10.0,SW,3.5,-,N/A,,Clear,230,2012-10-08 19:55:00
2:15 PM,60.8,24.8,25,29.99,10.0,Calm,Calm,-,N/A,,Clear,0,2012-10-08 20:15:00
2:35 PM,62.6,24.8,24,29.99,10.0,NNW,4.6,-,N/A,,Clear,340,2012-10-08 20:35:00
2:55 PM,62.6,23.0,22,29.98,10.0,NE,4.6,-,N/A,,Clear,40,2012-10-08 20:55:00
3:35 PM,62.6,23.0,22,29.97,10.0,WNW,3.5,-,N/A,,Clear,290,2012-10-08 21:35:00
3:55 PM,62.6,21.2,20,29.96,10.0,Calm,Calm,-,N/A,,Clear,0,2012-10-08 21:55:00
4:35 PM,64.4,23.0,21,29.95,10.0,West,4.6,-,N/A,,Clear,270,2012-10-08 22:35:00
4:55 PM,64.4,21.2,19,29.94,10.0,Calm,Calm,-,N/A,,Clear,0,2012-10-08 22:55:00
5:15 PM,64.4,21.2,19,29.93,10.0,WNW,4.6,-,N/A,,Clear,290,2012-10-08 23:15:00
5:35 PM,64.4,21.2,19,29.93,10.0,WNW,3.5,-,N/A,,Clear,300,2012-10-08 23:35:00
5:55 PM,64.4,21.2,19,29.93,5.0,NW,3.5,-,N/A,,Clear,320,2012-10-08 23:55:00
6:15 PM,66.2,21.2,18,29.93,10.0,North,4.6,-,N/A,,Clear,350,2012-10-09 00:15:00
6:35 PM,64.4,21.2,19,29.92,10.0,Calm,Calm,-,N/A,,Clear,0,2012-10-09 00:35:00
7:35 PM,59.0,21.2,23,29.91,10.0,SW,3.5,-,N/A,,Clear,220,2012-10-09 01:35:00
7:55 PM,57.2,24.8,29,29.91,10.0,WSW,3.5,-,N/A,,Clear,240,2012-10-09 01:55:00
8:15 PM,55.4,24.8,31,29.91,10.0,Calm,Calm,-,N/A,,Clear,0,2012-10-09 02:15:00
8:55 PM,51.8,24.8,35,29.92,10.0,Calm,Calm,-,N/A,,Clear,0,2012-10-09 02:55:00
9:15 PM,48.2,24.8,40,29.93,10.0,North,4.6,-,N/A,,Clear,360,2012-10-09 03:15:00
9:55 PM,46.4,23.0,40,29.93,10.0,West,3.5,-,N/A,,Clear,270,2012-10-09 03:55:00
10:15 PM,46.4,24.8,43,29.94,10.0,South,3.5,-,N/A,,Clear,190,2012-10-09 04:15:00
10:35 PM,44.6,26.6,49,29.95,10.0,Calm,Calm,-,N/A,,Clear,0,2012-10-09 04:35:00
10:55 PM,44.6,26.6,49,29.95,10.0,Calm,Calm,-,N/A,,Clear,0,2012-10-09 04:55:00
11:15 PM,44.6,24.8,46,29.96,10.0,SSW,3.5,-,N/A,,Clear,210,2012-10-09 05:15:00
11:35 PM,44.6,26.6,49,29.95,10.0,SW,3.5,-,N/A,,Clear,220,2012-10-09 05:35:00
11:56 PM,44.6,26.6,49,29.96,10.0,Calm,Calm,-,N/A,,Clear,0,2012-10-09 05:56:00